Location: Bergnerzell
(49.1816°N, 10.2565°E)
Time: 21:13:43
(UTC+00:00)

Cosmos 1315 Rocket - Pass Details

Date: 23 May 2024
Orbit: 515 x 542 km, 81.2° (Epoch: 23 June)

Event Time Altitude Azimuth Distance (km) Brightness Sun altitude
Exits shadow 01:39:59 20° 235° (SW) 1,244 4.1 -13.2°
Maximum altitude 01:42:04 35° 288° (WNW) 864 3.7 -13.0°
Drops below altitude 10° 01:45:43 10° 356° (N) 1,789 6.2 -12.6°
Sets 01:48:02 0° 6° (N) 2,690 7.4 -12.4°
